[[{"header":{"parameterUnit":"m.s-1","parameterCategory":1,"la1":30.2991,"la2":30.254,"lo1":-89.0895,"lo2":-89.0444,"dy":0.0017,"dx":0.0017,"nx":28,"ny":28,"refTime":"2024-09-03T03:00:00:Z","depth":0,"parameterNumber":2,"parameterNumberName":"U-component_of_WINDS"},"data":[0,0,0,0,0,0,0,0,0,0,0,0,0,0,0,0,0,0,0,0,0,0,0,0,0,0,0,0,0,0,0,0,0,0,0,0,0,0,0,0,0,0,0,0,0,0,0,0,0,0,0,0,0,0,0,0,0,0,-3.996,-3.9961,0,-4.0129,-4.0131,-4.0133,-4.01,-4.0097,-4.0094,-4.0091,-4.0272,-4.0279,-4.0287,0,0,0,0,0,0,0,0,0,0,0,0,0,-3.9617,-3.9624,-3.996,-3.9962,-3.9964,-4.0128,-4.0131,-4.0133,-4.01,-4.0096,-4.0093,-4.0089,-4.0269,-4.0278,-4.0287,0,0,0,0,0,0,0,0,0,0,0,0,0,-3.9774,-3.9626,-3.9959,-3.9967,-3.9969,-4.0128,-4.0131,-4.0134,-4.0101,-4.0096,-4.0092,-4.0087,-4.0266,-4.0277,-4.0289,-4.0452,0,0,-4.0324,-4.0329,0,0,0,0,0,0,0,0,-3.9766,-3.9787,-3.9964,-3.9967,-3.997,-4.0088,-4.0076,-4.0241,-4.0102,-4.0051,-4.0091,-4.0085,-4.0215,-4.023,-4.0273,-4.0461,-4.0469,-4.0325,-4.0332,-4.0337,-4.034,0,0,0,0,0,0,0,-3.9755,-3.978,-4.0027,-3.9966,-3.997,-3.9965,-3.9982,-4.0108,-4.0157,-4.0055,-4.0053,-4.0073,-4.0216,-4.0261,-4.0277,-4.0471,-4.0325,-4.0335,-4.0342,-4.0347,-4.0806,-4.0811,0,0,0,0,0,0,-3.974,-3.9771,-4.0021,-4.0032,-3.9854,-3.9975,-3.9994,-4.0055,-4.0156,-4.0166,-4.0077,-4.0071,-4.0244,-4.0263,-4.0283,-4.0482,-4.0337,-4.0348,-4.0354,-4.0801,-4.0807,-4.0813,0,0,0,0,0,0,-3.9733,-3.9763,-4.0014,-3.9901,-3.9932,-3.9986,-4.0054,-4.0061,-4.0106,-4.0172,-4.0182,-4.0114,-4.0241,-4.0267,-4.0411,-4.0488,-4.0353,-4.0363,-4.0794,-4.0803,-4.081,-4.088,0,0,0,0,0,0,-3.9723,-3.976,-3.982,-3.9902,-3.9939,-4.0137,-4.0059,-4.0067,-4.0125,-4.0119,-4.0209,-4.022,-4.0239,-4.0393,-4.0422,-4.0501,-4.0372,-4.0788,-4.0798,-4.0807,-4.0871,-4.089,-4.0906,0,0,0,0,0,-3.9711,-3.9835,-3.9823,-3.9854,-4.0015,-4.0141,-4.0162,-4.018,-4.0132,-4.0194,-4.0237,-4.0217,-4.0475,-4.0408,-4.044,-4.0524,-4.0783,-4.0795,-4.0807,-4.0864,-4.0886,-4.0905,0,0,0,0,0,0,-3.9762,-3.9845,-3.9834,-3.9987,-4.0057,-4.0135,-4.0214,-4.0203,-4.0289,-4.028,-4.0301,-4.0322,-4.0469,-4.0511,-4.0436,-4.0689,-4.0623,-4.0641,-4.0655,-4.0677,-4.0694,-4.068,-4.0382,0,0,0,0,0,-3.9791,-3.9884,-3.9953,-4.0082,-4.0118,-4.016,-4.0216,-4.0224,-4.0298,-4.0328,-4.0381,-4.0456,-4.0554,-4.0618,-4.0712,-4.0879,-4.0899,-4.0952,-4.0969,-4.0983,-4.0999,-4.1092,-4.1116,-4.0852,-4.0852,-4.0851,0,0,-3.9852,-3.9909,-3.9967,-4.0094,-4.0149,-4.0247,-4.0185,-4.0292,-4.0366,-4.0345,-4.0483,-4.0526,-4.0611,-4.0767,-4.0839,-4.0807,-4.1077,-4.0998,-4.1008,-4.1017,-4.1106,-4.1131,-4.1154,-4.086,-4.0858,-4.0857,0,0,-4.0014,-4.0066,-4.0179,-4.0235,-4.0319,-4.0347,-4.0375,-4.0455,-4.0482,-4.0621,-4.0607,-4.0698,-4.0866,-4.0928,-4.0982,-4.117,-4.1156,-4.1201,-4.1289,-4.138,-4.1401,-4.1419,-4.1487,-4.1511,-4.1217,-4.1217,-4.1217,0,-4.0079,-4.0224,-4.0239,-4.0347,-4.0405,-4.0389,-4.0506,-4.0561,-4.0673,-4.0714,-4.0677,-4.0889,-4.0945,-4.1116,-4.1162,-4.1206,-4.1241,-4.1189,-4.1396,-4.1415,-4.1432,-4.1497,-4.1523,-4.1222,-4.1221,-4.1221,-4.122,0,-4.0301,-4.0403,-4.0485,-4.059,-4.0657,-4.077,-4.0805,-4.0872,-4.0875,-4.0908,-4.1052,-4.112,-4.1228,-4.127,-4.1275,-4.1443,-4.1421,-4.139,-4.1323,-4.1462,-4.1523,-4.1548,-4.1229,-4.1227,-4.1226,-4.1224,0,0,-4.0497,-4.061,-4.064,-4.0688,-4.0781,-4.0861,-4.0975,-4.1078,-4.1136,-4.1215,-4.1311,-4.1456,-4.1428,-4.1489,-4.1502,-4.1581,-4.1728,-4.1541,-4.1544,-4.1573,-4.1919,-4.194,-4.1969,-4.172,-4.1724,-4.1728,-4.1912,0,-4.0666,-4.0861,-4.088,-4.1057,-4.1152,-4.1141,-4.1241,-4.131,-4.1345,-4.1434,-4.1474,-4.1576,-4.1532,-4.1569,-4.1647,-4.1693,-4.1797,-4.168,-4.1812,-4.1816,-4.1789,-4.2001,-4.2023,-4.2193,-4.1936,-4.194,-4.1943,0,-4.0888,-4.0971,-4.1157,-4.1238,-4.1278,-4.1367,-4.1464,-4.1548,-4.1629,-4.1649,-4.1719,-4.1721,-4.1842,-4.1772,-4.194,-4.186,-4.1916,-4.1948,-4.1955,-4.1967,-4.1886,-4.2018,-4.2247,-4.2272,-4.1981,-4.1978,-4.1975,0,-4.1011,-4.117,-4.1302,-4.1344,-4.1442,-4.1504,-4.1549,-4.1624,-4.1686,-4.1774,-4.1814,-4.1916,-4.1971,-4.2051,-4.2083,-4.2029,-4.225,-4.2182,-4.2272,-4.2271,-4.2317,-4.2313,-4.2557,-4.2355,-4.2355,-4.2354,-4.2354,0,-4.1197,-4.1311,-4.1358,-4.1439,-4.1568,-4.1591,-4.172,-4.1762,-4.183,-4.1921,-4.192,-4.2006,-4.2043,-4.2137,-4.2164,-4.2299,-4.2325,-4.2347,-4.2352,-4.2346,-4.2343,-4.2381,-4.237,-4.2361,-4.236,-4.2358,-4.2357,0,-4.1355,-4.1391,-4.1534,-4.1616,-4.1639,-4.1731,-4.1802,-4.1882,-4.1917,-4.2033,-4.2062,-4.2119,-4.2229,-4.2269,-4.2405,-4.2422,-4.258,-4.2576,-4.2551,-4.2552,-4.264,-4.2631,-4.2916,-4.2955,-4.2728,-4.273,-4.2732,0,-4.1471,-4.1558,-4.1649,-4.1708,-4.1754,-4.1851,-4.1914,-4.1942,-4.2009,-4.2108,-4.2177,-4.2287,-4.2375,-4.2554,-4.2609,-4.2713,-4.2711,-4.2805,-4.2727,-4.2719,-4.2713,-4.2706,-4.2716,-4.2818,-4.2821,-4.2822,-4.2824,0,-4.1672,-4.1686,-4.1774,-4.1871,-4.1946,-4.2024,-4.21,-4.215,-4.219,-4.2265,-4.2377,-4.2446,-4.2584,-4.2693,-4.2801,-4.285,-4.2845,-4.2848,-4.2875,-4.2868,-4.285,-4.2861,-4.259,-4.2841,-4.2839,-4.2838,-4.2837,-4.2837,-4.1812,-4.1889,-4.1965,-4.2065,-4.2125,-4.2197,-4.2276,-4.2321,-4.2414,-4.2526,-4.2539,-4.266,-4.2742,-4.2885,-4.294,-4.3037,-4.3012,-4.305,-4.306,-4.3068,-4.3074,-4.2836,-4.3057,-4.3057,-4.3056,-4.3056,-4.3056,0,-4.2012,-4.2061,-4.2153,-4.2258,-4.2338,-4.2325,-4.2409,-4.2477,-4.2582,-4.2658,-4.2745,-4.2876,-4.2983,-4.3047,-4.3156,-4.3222,-4.3222,-4.3249,-4.3244,-4.3256,-4.3091,-4.3057,-4.3247,-4.3247,-4.3247,-4.3247,-4.3247,-4.3247,-4.2126,-4.2256,-4.228,-4.2442,-4.2491,-4.2607,-4.2656,-4.2724,-4.2784,-4.2928,-4.3016,-4.3057,-4.313,-4.3244,-4.3343,-4.3359,-4.34,-4.3429,-4.3443,-4.3287,-4.3267,-4.3248,-4.3217,-4.3437,-4.3438,-4.36,-4.3602,-4.3603]},{"header":{"parameterUnit":"m.s-1","parameterCategory":1,"la1":30.2991,"la2":30.254,"lo1":-89.0895,"lo2":-89.0444,"dy":0.0017,"dx":0.0017,"nx":28,"ny":28,"refTime":"2024-09-03T03:00:00:Z","depth":0,"parameterNumber":3,"parameterNumberName":"V-component_of_WINDS"},"data":[0,0,0,0,0,0,0,0,0,0,0,0,0,0,0,0,0,0,0,0,0,0,0,0,0,0,0,0,0,0,0,0,0,0,0,0,0,0,0,0,0,0,0,0,0,0,0,0,0,0,0,0,0,0,0,0,0,0,1.6231,1.6231,0,1.6265,1.6266,1.6266,1.6263,1.6262,1.6262,1.6261,1.6296,1.6298,1.6299,0,0,0,0,0,0,0,0,0,0,0,0,0,1.6162,1.6164,1.6231,1.6231,1.6232,1.6265,1.6266,1.6266,1.6263,1.6262,1.6262,1.6261,1.6296,1.6298,1.6299,0,0,0,0,0,0,0,0,0,0,0,0,0,1.6194,1.6164,1.6231,1.6234,1.6235,1.6265,1.6266,1.6266,1.6263,1.6262,1.6262,1.6261,1.6295,1.6298,1.63,1.6329,0,0,1.6306,1.6307,0,0,0,0,0,0,0,0,1.6192,1.6197,1.6233,1.6234,1.6235,1.6259,1.6255,1.6287,1.6263,1.6252,1.6261,1.626,1.6285,1.6288,1.6296,1.6331,1.6332,1.6306,1.6308,1.6309,1.6309,0,0,0,0,0,0,0,1.619,1.6195,1.6245,1.6234,1.6235,1.6234,1.6238,1.6261,1.6273,1.6253,1.6253,1.6257,1.6285,1.6294,1.6297,1.6333,1.6306,1.6308,1.631,1.631,1.6393,1.6394,0,0,0,0,0,0,1.6187,1.6193,1.6243,1.6246,1.6211,1.6236,1.624,1.6252,1.6272,1.6275,1.6258,1.6257,1.6291,1.6294,1.6298,1.6333,1.6309,1.6311,1.6312,1.6392,1.6394,1.6395,0,0,0,0,0,0,1.6186,1.6192,1.6242,1.6219,1.6226,1.6238,1.6252,1.6253,1.6262,1.6276,1.6278,1.6265,1.629,1.6295,1.6321,1.6334,1.6312,1.6314,1.6391,1.6393,1.6394,1.6404,0,0,0,0,0,0,1.6184,1.6191,1.6202,1.622,1.6227,1.6265,1.6252,1.6254,1.6266,1.6265,1.6283,1.6285,1.629,1.6318,1.6323,1.6337,1.6315,1.639,1.6392,1.6394,1.6403,1.6406,1.6408,0,0,0,0,0,1.6181,1.6204,1.6203,1.6209,1.6241,1.6265,1.627,1.6275,1.6267,1.6278,1.6287,1.6284,1.6332,1.6321,1.6327,1.6341,1.6389,1.6391,1.6393,1.6401,1.6405,1.6408,0,0,0,0,0,0,1.6187,1.6206,1.6205,1.6234,1.6248,1.6265,1.6279,1.6278,1.6295,1.6294,1.6299,1.6303,1.633,1.6338,1.6325,1.6371,1.636,1.6363,1.6364,1.6367,1.637,1.6367,1.6317,0,0,0,0,0,1.6192,1.621,1.6226,1.6249,1.6257,1.6267,1.6278,1.628,1.6295,1.6301,1.6312,1.6327,1.6345,1.6357,1.6375,1.6404,1.6408,1.6417,1.642,1.6422,1.6425,1.6441,1.6445,1.6401,1.6401,1.6401,0,0,1.6201,1.6214,1.6225,1.6251,1.6262,1.6281,1.6272,1.6292,1.6306,1.6304,1.633,1.6338,1.6355,1.6383,1.6396,1.6391,1.6438,1.6425,1.6427,1.6428,1.6444,1.6448,1.6451,1.6403,1.6402,1.6402,0,0,1.6228,1.624,1.6261,1.6273,1.629,1.6297,1.6302,1.6319,1.6325,1.6351,1.635,1.6367,1.6398,1.641,1.642,1.6453,1.6451,1.6459,1.6473,1.6489,1.6492,1.6495,1.6506,1.651,1.6461,1.6461,1.6461,0,1.6238,1.6266,1.6272,1.6292,1.6303,1.6303,1.6325,1.6336,1.6358,1.6366,1.636,1.64,1.6411,1.6442,1.645,1.6459,1.6465,1.6456,1.6491,1.6494,1.6497,1.6508,1.6512,1.6462,1.6462,1.6462,1.6462,0,1.6276,1.6296,1.6311,1.6333,1.6346,1.6367,1.6376,1.6388,1.6391,1.6398,1.6424,1.6438,1.6459,1.6467,1.6469,1.6498,1.6494,1.649,1.6479,1.6502,1.6512,1.6516,1.6463,1.6463,1.6463,1.6463,0,0,1.6306,1.6332,1.6337,1.6347,1.6367,1.6382,1.6403,1.6423,1.6434,1.645,1.6467,1.6494,1.6491,1.6502,1.6506,1.652,1.6544,1.6514,1.6515,1.6518,1.6577,1.6579,1.6584,1.6544,1.6545,1.6545,1.6575,0,1.6334,1.6371,1.6378,1.641,1.6428,1.6429,1.6447,1.6462,1.647,1.6486,1.6495,1.6514,1.6508,1.6515,1.6529,1.6538,1.6556,1.6537,1.656,1.656,1.6554,1.6589,1.6591,1.6619,1.6579,1.658,1.658,0,1.6372,1.6388,1.6423,1.644,1.6448,1.6464,1.6483,1.65,1.6516,1.6521,1.6534,1.6537,1.6559,1.6548,1.6578,1.6565,1.6575,1.6581,1.6582,1.6584,1.6571,1.659,1.6628,1.6631,1.6587,1.6586,1.6586,0,1.6389,1.642,1.6445,1.6453,1.6475,1.6486,1.6496,1.6511,1.6523,1.654,1.6548,1.6568,1.6578,1.6593,1.6601,1.6592,1.663,1.662,1.6634,1.6634,1.6641,1.664,1.668,1.665,1.665,1.665,1.665,0,1.6419,1.6439,1.6453,1.6468,1.6491,1.6499,1.6521,1.6531,1.6545,1.6562,1.6564,1.658,1.659,1.6607,1.6613,1.6637,1.6642,1.6646,1.6647,1.6645,1.6645,1.6651,1.6649,1.6651,1.665,1.665,1.665,0,1.6441,1.6451,1.6478,1.6496,1.6502,1.6518,1.6534,1.6548,1.6557,1.6578,1.6583,1.6596,1.6617,1.6626,1.6652,1.6656,1.6683,1.6683,1.6677,1.6677,1.6691,1.6689,1.6735,1.6741,1.6708,1.6708,1.6708,0,1.6459,1.6475,1.6496,1.6507,1.6517,1.6535,1.6548,1.6556,1.6569,1.6589,1.6601,1.6622,1.6639,1.6671,1.6683,1.6703,1.6703,1.6718,1.6706,1.6703,1.6702,1.6701,1.6702,1.6719,1.672,1.672,1.672,0,1.649,1.6494,1.6511,1.6531,1.6545,1.6561,1.6577,1.6586,1.6597,1.6611,1.6632,1.6645,1.6671,1.6692,1.6712,1.6722,1.6723,1.6724,1.6728,1.6725,1.6721,1.6723,1.6682,1.6722,1.6722,1.6722,1.6722,1.6722,1.651,1.6524,1.6541,1.656,1.6573,1.6587,1.6602,1.6612,1.663,1.6652,1.6656,1.6678,1.6695,1.6722,1.6733,1.6751,1.6747,1.6754,1.6755,1.6756,1.6756,1.6719,1.6755,1.6755,1.6755,1.6755,1.6754,0,1.654,1.6551,1.6568,1.659,1.6605,1.6606,1.6623,1.6636,1.6655,1.6671,1.6687,1.6712,1.6732,1.6746,1.6766,1.6777,1.6778,1.6782,1.6781,1.6783,1.6759,1.6753,1.6781,1.6781,1.6781,1.6781,1.6781,1.6781,1.6557,1.6581,1.6587,1.6617,1.6628,1.665,1.666,1.6673,1.6686,1.6713,1.6729,1.6738,1.6753,1.6775,1.6793,1.6797,1.6804,1.6808,1.6811,1.6788,1.6785,1.6782,1.6776,1.6809,1.6809,1.6834,1.6834,1.6834]}]]